パンスターズ彗星

C/2015 A1 ( PanSTARRS )

English version
Home page
Updated on June 11, 2016

---------------------------------------------------------------------

・ プロフィール

発見日 2015年1月8日
発見光度 19.7等
発見者 Pan-STARRS 1 telescope (Haleakala)

・ 写真集

・ 軌道要素

Epoch 2015 Feb. 27.0 TT = JDT 2457080.5
T 2015 Mar. 13.05469 TT                                 MPCW
q   1.9955037            (2000.0)            P               Q
n   0.01092141     Peri.  244.87821     -0.45073831     +0.83349029
a  20.1194911      Node   341.08604     +0.34981306     -0.16444412
e   0.9008174      Incl.   80.36576     -0.82125867     -0.52749604
P  90.2
From 60 observations 2015 Jan. 8-Oct. 14, mean residual 0".4.

・ 光度変化

        m1 = 12.0 + 5 logΔ + 15.0 log r

---------------------------------------------------------------------

軌道要素はM.P.E.C. 2015-U54に掲載されたものです。
光度グラフはComet for Windowsで作成したものです。

---------------------------------------------------------------------

Copyright(C) Seiichi Yoshida (comet@aerith.net). All rights reserved.